TimeCST,TemperatureF,Dew PointF,Humidity,Sea Level PressureIn,VisibilityMPH,Wind Direction,Wind SpeedMPH,Gust SpeedMPH,PrecipitationIn,Events,Conditions,WindDirDegrees,DateUTC
12:15 AM,57.2,51.8,82,30.06,10.0,NNE,21.9,-,N/A,,Overcast,30,2014-01-28 06:15:00
12:35 AM,57.2,48.2,72,30.06,10.0,NNE,24.2,-,N/A,,Overcast,30,2014-01-28 06:35:00
12:55 AM,55.4,46.4,72,30.05,10.0,NNE,24.2,-,N/A,,Overcast,30,2014-01-28 06:55:00
1:15 AM,55.4,46.4,72,30.05,10.0,NE,25.3,-,N/A,,Overcast,40,2014-01-28 07:15:00
1:35 AM,55.4,46.4,72,30.06,10.0,NNE,24.2,31.1,N/A,,Overcast,30,2014-01-28 07:35:00
1:55 AM,55.4,44.6,67,30.04,10.0,NE,26.5,-,N/A,,Overcast,40,2014-01-28 07:55:00
2:15 AM,53.6,44.6,72,30.04,10.0,NE,27.6,-,N/A,,Overcast,40,2014-01-28 08:15:00
2:35 AM,53.6,44.6,72,30.04,10.0,NNE,27.6,-,N/A,,Overcast,30,2014-01-28 08:35:00
2:55 AM,53.6,42.8,67,30.05,10.0,NNE,28.8,-,N/A,,Overcast,20,2014-01-28 08:55:00
3:15 AM,53.6,42.8,67,30.05,10.0,NNE,27.6,-,N/A,,Overcast,30,2014-01-28 09:15:00
3:35 AM,51.8,41.0,67,30.05,10.0,NE,25.3,-,N/A,,Overcast,40,2014-01-28 09:35:00
3:55 AM,51.8,41.0,67,30.06,10.0,NE,26.5,-,N/A,,Overcast,40,2014-01-28 09:55:00
4:15 AM,51.8,41.0,67,30.06,10.0,NNE,27.6,-,N/A,,Overcast,30,2014-01-28 10:15:00
4:35 AM,51.8,41.0,67,30.06,10.0,NE,23.0,29.9,N/A,,Unknown,40,2014-01-28 10:35:00
4:55 AM,51.8,41.0,67,30.07,10.0,NNE,25.3,-,N/A,,Unknown,30,2014-01-28 10:55:00
5:15 AM,51.8,41.0,67,30.07,10.0,NNE,26.5,-,N/A,,Unknown,30,2014-01-28 11:15:00
5:35 AM,51.8,41.0,67,30.08,10.0,North,-9999.0,-,N/A,,Unknown,0,2014-01-28 11:35:00
5:55 AM,51.8,39.2,62,30.09,10.0,NNE,26.5,-,N/A,,Unknown,30,2014-01-28 11:55:00
6:15 AM,50.0,39.2,66,30.09,10.0,North,-9999.0,-,N/A,,Overcast,0,2014-01-28 12:15:00
6:35 AM,50.0,39.2,66,30.10,10.0,North,-9999.0,-,N/A,,Overcast,0,2014-01-28 12:35:00
6:55 AM,50.0,39.2,66,30.12,10.0,NNE,27.6,-,N/A,,Overcast,20,2014-01-28 12:55:00
7:15 AM,50.0,37.4,62,30.13,10.0,North,-9999.0,-,N/A,,Overcast,0,2014-01-28 13:15:00
7:35 AM,48.2,37.4,66,30.14,10.0,North,-9999.0,-,N/A,,Overcast,0,2014-01-28 13:35:00
7:55 AM,48.2,37.4,66,30.14,10.0,NNE,27.6,33.4,N/A,,Overcast,20,2014-01-28 13:55:00
8:15 AM,48.2,37.4,66,30.15,10.0,NNE,25.3,31.1,N/A,,Overcast,30,2014-01-28 14:15:00
8:35 AM,48.2,37.4,66,30.16,10.0,North,-9999.0,-,N/A,,Overcast,0,2014-01-28 14:35:00
8:55 AM,48.2,37.4,66,30.17,10.0,North,-9999.0,-,N/A,,Overcast,0,2014-01-28 14:55:00
9:15 AM,46.4,37.4,71,30.18,10.0,NNE,24.2,29.9,N/A,,Overcast,20,2014-01-28 15:15:00
9:35 AM,46.4,37.4,71,30.17,10.0,North,-9999.0,-,N/A,,Overcast,0,2014-01-28 15:35:00
9:55 AM,46.4,35.6,66,30.18,10.0,North,-9999.0,-,N/A,,Overcast,0,2014-01-28 15:55:00
10:15 AM,46.4,35.6,66,30.19,10.0,NNE,24.2,-,N/A,,Overcast,20,2014-01-28 16:15:00
10:35 AM,46.4,35.6,66,30.20,10.0,North,-9999.0,-,N/A,,Overcast,0,2014-01-28 16:35:00
10:55 AM,46.4,37.4,71,30.20,10.0,North,-9999.0,-,N/A,,Overcast,0,2014-01-28 16:55:00
11:15 AM,44.6,35.6,71,30.20,10.0,North,28.8,-,N/A,,Overcast,10,2014-01-28 17:15:00
11:35 AM,44.6,35.6,71,30.19,10.0,North,-9999.0,-,N/A,,Overcast,0,2014-01-28 17:35:00
11:55 AM,42.8,35.6,76,30.18,10.0,North,28.8,-,N/A,,Overcast,10,2014-01-28 17:55:00
12:15 PM,42.8,35.6,76,30.17,10.0,North,-9999.0,-,N/A,,Overcast,0,2014-01-28 18:15:00
12:35 PM,41.0,35.6,81,30.17,10.0,North,-9999.0,-,N/A,,Overcast,0,2014-01-28 18:35:00
12:55 PM,41.0,35.6,81,30.17,10.0,North,26.5,33.4,N/A,,Overcast,10,2014-01-28 18:55:00
1:15 PM,41.0,35.6,81,30.15,10.0,North,-9999.0,-,N/A,,Overcast,0,2014-01-28 19:15:00
1:35 PM,41.0,37.4,87,30.14,10.0,North,-9999.0,-,N/A,,Overcast,0,2014-01-28 19:35:00
1:55 PM,41.0,37.4,87,30.15,10.0,North,24.2,-,N/A,,Overcast,10,2014-01-28 19:55:00
2:15 PM,41.0,37.4,87,30.15,10.0,North,23.0,-,N/A,,Overcast,10,2014-01-28 20:15:00
2:35 PM,41.0,37.4,87,30.16,10.0,North,-9999.0,-,N/A,,Overcast,0,2014-01-28 20:35:00
2:55 PM,41.0,37.4,87,30.15,10.0,North,-9999.0,-,N/A,,Overcast,0,2014-01-28 20:55:00
3:15 PM,41.0,39.2,93,30.15,10.0,North,-9999.0,-,N/A,,Overcast,0,2014-01-28 21:15:00
3:35 PM,41.0,39.2,93,30.14,-9999.0,North,-9999.0,-,N/A,,Overcast,0,2014-01-28 21:35:00
3:55 PM,41.0,37.4,87,30.15,-9999.0,North,-9999.0,-,N/A,,Overcast,0,2014-01-28 21:55:00
4:15 PM,41.0,39.2,93,30.16,10.0,North,-9999.0,-,N/A,,Overcast,0,2014-01-28 22:15:00
4:35 PM,41.0,39.2,93,30.16,10.0,North,28.8,-,N/A,,Overcast,10,2014-01-28 22:35:00
4:55 PM,41.0,39.2,93,30.18,10.0,North,-9999.0,-,N/A,,Overcast,0,2014-01-28 22:55:00
5:15 PM,41.0,39.2,93,30.17,10.0,North,-9999.0,-,N/A,,Overcast,0,2014-01-28 23:15:00
5:35 PM,41.0,37.4,87,30.19,10.0,North,-9999.0,-,N/A,,Overcast,0,2014-01-28 23:35:00
5:55 PM,41.0,37.4,87,30.20,10.0,North,-9999.0,-,N/A,,Overcast,0,2014-01-28 23:55:00
6:15 PM,41.0,37.4,87,30.20,10.0,North,-9999.0,-,N/A,,Overcast,0,2014-01-29 00:15:00
6:35 PM,41.0,37.4,87,30.21,10.0,North,-9999.0,-,N/A,,Overcast,0,2014-01-29 00:35:00
6:55 PM,41.0,37.4,87,30.23,10.0,North,-9999.0,-,N/A,,Overcast,0,2014-01-29 00:55:00
7:15 PM,41.0,37.4,87,30.24,10.0,North,-9999.0,-,N/A,,Overcast,0,2014-01-29 01:15:00
7:35 PM,41.0,37.4,87,30.23,10.0,North,-9999.0,-,N/A,,Unknown,0,2014-01-29 01:35:00
7:55 PM,41.0,37.4,87,30.24,10.0,North,31.1,39.1,N/A,,Unknown,360,2014-01-29 01:55:00
8:15 PM,41.0,37.4,87,30.25,10.0,NNE,29.9,35.7,N/A,,Unknown,20,2014-01-29 02:15:00
8:35 PM,39.2,37.4,93,30.25,10.0,North,33.4,-,N/A,,Unknown,10,2014-01-29 02:35:00
8:55 PM,39.2,35.6,87,30.26,10.0,North,-9999.0,-,N/A,,Unknown,0,2014-01-29 02:55:00
9:15 PM,39.2,35.6,87,30.26,10.0,NNE,32.2,-,N/A,,Overcast,20,2014-01-29 03:15:00
9:35 PM,39.2,35.6,87,30.28,10.0,North,-9999.0,-,N/A,,Overcast,0,2014-01-29 03:35:00
9:55 PM,39.2,35.6,87,30.28,10.0,North,-9999.0,-,N/A,,Overcast,0,2014-01-29 03:55:00
10:15 PM,39.2,35.6,87,30.27,10.0,North,-9999.0,-,N/A,,Overcast,0,2014-01-29 04:15:00
10:35 PM,39.2,35.6,87,30.27,10.0,North,28.8,38.0,N/A,,Overcast,10,2014-01-29 04:35:00
10:55 PM,39.2,37.4,93,30.29,10.0,North,-9999.0,-,N/A,,Overcast,0,2014-01-29 04:55:00
11:15 PM,39.2,37.4,93,30.27,10.0,North,-9999.0,-,N/A,,Overcast,0,2014-01-29 05:15:00
11:35 PM,39.2,37.4,93,30.26,10.0,North,-9999.0,-,N/A,,Overcast,0,2014-01-29 05:35:00
11:55 PM,39.2,37.4,93,30.27,10.0,North,-9999.0,-,N/A,,Overcast,0,2014-01-29 05:55:00